Location: Newark
(45.6000°N, 12.8833°E)
Time: 18:30:40
(UTC+00:00)

Vanguard 3 - Pass Details

Date: 25 November 2019
Orbit: 508 x 3263 km, 33.3° (Epoch: 11 December)

Event Time Altitude Azimuth Distance (km) Brightness Sun altitude
Rises 18:14:27 0° 278° (W) 7,142 13.2 -28.3°
Reaches altitude 10° 18:21:58 10° 263° (W) 5,829 12.4 -29.7°
Maximum altitude 18:31:10 17° 230° (SW) 4,645 11.4 -31.3°
Drops below altitude 10° 18:38:38 10° 196° (SSW) 4,549 11.1 -32.6°
Sets 18:43:24 0° 177° (S) 5,035 11.1 -33.4°
